SCP
0 0 0 0 0 0 0 0 0 0 0 0 0 0 0 0 0 0 0 0 0 0
0 0 0 0 0 0 0 0 0 0 0 0 0 0 0 0 0 0 0 0 0 0
0 0 0 0 0 0 0 0 0 0 0 0 0 0 0 0 0 0 0 0 0 0
0 0 0 0 0 0 0 0 0 0 0 0 0 0 0 0 0 0 0 0 0 0
0 0 0 0 0 0 0 0 0 0 0 0 0 0 0 0 0 0 0 0 0 0
0 0 0 0 0 0 0 0 0 0 0 0 0 0 0 0 0 0 0 0 0 0
0 0 0 0 0 0 0 0 0 0 0 0 0 0 0 0 0 0 0 0 0 0
0 0 0 0 0 0 0 0 0 0 0 0 0 0 0 0 0 0 0 0 0 0
0 0 0 0 0 0 0 0 0 0 0 0 0 0 0 0 0 0 0 0 0 0
0 0 0 0 0 0 0 0 0 0 0 0 0 0 0 0 0 0 0 0 0 0
0 0 0 0 0 0 0 0 0 0 0 0 0 0 0 0 0 0 0 0 0 0
0 0 0 0 0 0 0 0 0 0 0 0 0 0 0 0 0 0 0 0 0 0
0 0 0 0 0 0 0 0 0 0 0 0 0 0 0 0 0 0 0 0 0 0
0 0 0 0 0 0 0 0 0 0 0 0 0 0 0 0 0 0 0 0 0 0
Wind_Speed_500mb
30 34 37 40 41 45 50 51 52 56 61 64 64 65 66 67 66 65 69 71 70 77
29 32 36 39 43 45 46 50 52 53 58 60 62 65 66 68 69 68 68 72 76 80
42 44 45 47 49 50 49 52 55 57 59 62 64 66 68 71 72 72 76 79 81 83
32 36 41 44 47 52 54 55 57 60 64 66 67 67 71 74 76 79 82 83 81 78
39 40 42 45 49 53 58 61 65 67 71 73 72 71 73 78 78 82 86 86 82 80
47 48 49 51 53 56 61 65 68 72 73 71 71 75 76 76 79 83 87 89 86 84
59 58 57 57 57 59 59 62 67 73 79 82 79 73 74 78 81 83 86 91 92 89
63 63 63 63 64 66 67 69 73 77 79 83 83 83 82 80 83 87 87 91 94 95
58 58 59 60 63 67 71 74 77 79 82 86 88 89 86 81 86 88 93 100 100 98
63 67 71 74 77 80 84 86 87 88 87 91 93 88 87 87 85 89 97 100 101 105
71 76 79 84 89 95 102 105 107 106 101 98 98 92 88 86 84 86 95 100 102 104
80 87 91 94 97 98 105 108 110 111 111 106 107 97 93 89 86 86 93 95 101 103
82 87 92 93 96 97 98 103 105 110 106 104 105 99 93 87 85 87 89 93 98 106
80 83 85 90 91 93 96 98 99 102 104 102 97 96 87 81 78 85 87 93 97 106
Wind_Direction_500mb
344 337 329 323 315 308 305 303 298 292 290 290 289 284 279 276 274 270 264 259 261 256
343 337 331 326 322 317 313 308 302 299 297 296 294 290 284 279 275 270 266 263 261 260
339 335 332 330 327 323 318 312 308 305 302 298 296 293 290 285 280 271 266 264 261 261
333 326 324 322 320 319 318 316 312 309 305 302 299 296 292 289 283 276 270 265 263 261
340 334 327 321 315 312 310 310 310 310 307 303 299 296 294 291 286 280 275 273 268 264
341 336 334 330 326 320 314 310 305 300 299 299 298 294 291 288 284 281 278 275 271 266
338 338 335 331 327 323 321 316 311 308 305 300 293 286 284 282 280 278 275 273 271 265
334 333 330 326 323 320 317 315 313 311 308 304 298 294 287 281 279 277 273 270 268 265
330 331 333 333 331 329 327 323 318 313 309 306 303 301 293 286 282 277 273 272 268 264
331 330 328 326 325 324 322 320 319 318 313 305 300 301 298 292 283 275 271 269 267 266
324 322 321 319 318 317 316 315 314 312 310 306 300 297 296 297 286 278 273 269 267 265
320 319 319 318 316 315 313 311 310 309 308 307 301 298 294 291 288 282 278 273 269 265
321 319 319 319 319 319 317 314 313 310 310 308 306 303 299 295 288 283 279 278 274 269
323 323 322 321 321 320 318 316 315 313 310 310 308 305 303 299 292 285 282 279 277 276
Wind_Speed_850mb
30 34 37 40 41 45 50 51 52 56 61 64 64 65 66 67 66 65 69 71 70 77
29 32 36 39 43 45 46 50 52 53 58 60 62 65 66 68 69 68 68 72 76 80
42 44 45 47 49 50 49 52 55 57 59 62 64 66 68 71 72 72 76 79 81 83
32 36 41 44 47 52 54 55 57 60 64 66 67 67 71 74 76 79 82 83 81 78
39 40 42 45 49 53 58 61 65 67 71 73 72 71 73 78 78 82 86 86 82 80
47 48 49 51 53 56 61 65 68 72 73 71 71 75 76 76 79 83 87 89 86 84
59 58 57 57 57 59 59 62 67 73 79 82 79 73 74 78 81 83 86 91 92 89
63 63 63 63 64 66 67 69 73 77 79 83 83 83 82 80 83 87 87 91 94 95
58 58 59 60 63 67 71 74 77 79 82 86 88 89 86 81 86 88 93 100 100 98
63 67 71 74 77 80 84 86 87 88 87 91 93 88 87 87 85 89 97 100 101 105
71 76 79 84 89 95 102 105 107 106 101 98 98 92 88 86 84 86 95 100 102 104
80 87 91 94 97 98 105 108 110 111 111 106 107 97 93 89 86 86 93 95 101 103
82 87 92 93 96 97 98 103 105 110 106 104 105 99 93 87 85 87 89 93 98 106
80 83 85 90 91 93 96 98 99 102 104 102 97 96 87 81 78 85 87 93 97 106
Wind_Direction_850mb
344 337 329 323 315 308 305 303 298 292 290 290 289 284 279 276 274 270 264 259 261 256
343 337 331 326 322 317 313 308 302 299 297 296 294 290 284 279 275 270 266 263 261 260
339 335 332 330 327 323 318 312 308 305 302 298 296 293 290 285 280 271 266 264 261 261
333 326 324 322 320 319 318 316 312 309 305 302 299 296 292 289 283 276 270 265 263 261
340 334 327 321 315 312 310 310 310 310 307 303 299 296 294 291 286 280 275 273 268 264
341 336 334 330 326 320 314 310 305 300 299 299 298 294 291 288 284 281 278 275 271 266
338 338 335 331 327 323 321 316 311 308 305 300 293 286 284 282 280 278 275 273 271 265
334 333 330 326 323 320 317 315 313 311 308 304 298 294 287 281 279 277 273 270 268 265
330 331 333 333 331 329 327 323 318 313 309 306 303 301 293 286 282 277 273 272 268 264
331 330 328 326 325 324 322 320 319 318 313 305 300 301 298 292 283 275 271 269 267 266
324 322 321 319 318 317 316 315 314 312 310 306 300 297 296 297 286 278 273 269 267 265
320 319 319 318 316 315 313 311 310 309 308 307 301 298 294 291 288 282 278 273 269 265
321 319 319 319 319 319 317 314 313 310 310 308 306 303 299 295 288 283 279 278 274 269
323 323 322 321 321 320 318 316 315 313 310 310 308 305 303 299 292 285 282 279 277 276